User: anonymous   Login
Location: Unspecified
(43.4680°N, 87.1740°E)
Time: 00:29:00
(UTC+00:00)
Language:

Resurs 1-3 - Orbit

View from above orbital plane
View from above orbital plane
View from above satellite
View from above satellite

Ground track
Ground track

The orbit data is extracted from the following two-line orbital elements,

1 23342U 94074A   21169.53853988  .00000107  00000-0  21104-4 0  9996
2 23342  97.8769 218.3656 0000630  83.1117 277.0166 14.79428919433714
Epoch (UTC): 18 June 2021 12:55:29
Eccentricity: 0.0000630
inclination: 97.8769°
perigee height: 630 km
apogee height: 631 km
right ascension of ascending node: 218.3656°
argument of perigee: 83.1117°
revolutions per day: 14.79428919
mean anomaly at epoch: 277.0166°
orbit number at epoch: 43371

The dashed part of the orbit path shows where the satellite is in the earth's shadow,  

DLR